TimeCDT,TemperatureF,Dew PointF,Humidity,Sea Level PressureIn,VisibilityMPH,Wind Direction,Wind SpeedMPH,Gust SpeedMPH,PrecipitationIn,Events,Conditions,WindDirDegrees,DateUTC
12:14 AM,19.4,17.6,93,30.28,10.0,Calm,Calm,-,N/A,,Clear,0,2013-03-27 05:14:00
12:33 AM,17.6,17.6,100,30.28,7.0,Calm,Calm,-,N/A,,Clear,0,2013-03-27 05:33:00
12:53 AM,17.6,17.6,100,30.28,7.0,Calm,Calm,-,N/A,,Clear,0,2013-03-27 05:53:00
1:14 AM,19.4,17.6,93,30.28,10.0,Calm,Calm,-,N/A,,Clear,0,2013-03-27 06:14:00
1:33 AM,17.6,17.6,100,30.28,7.0,NNE,3.5,-,N/A,,Clear,20,2013-03-27 06:33:00
1:53 AM,17.6,15.8,93,30.29,7.0,NE,4.6,-,N/A,,Clear,40,2013-03-27 06:53:00
2:14 AM,15.8,15.8,100,30.29,10.0,NE,3.5,-,N/A,,Clear,40,2013-03-27 07:14:00
2:33 AM,15.8,14.0,93,30.29,10.0,Calm,Calm,-,N/A,,Clear,0,2013-03-27 07:33:00
2:53 AM,17.6,15.8,93,30.29,7.0,NNE,5.8,-,N/A,,Clear,20,2013-03-27 07:53:00
3:14 AM,15.8,14.0,93,30.29,10.0,NNE,5.8,-,N/A,,Clear,20,2013-03-27 08:14:00
3:33 AM,17.6,15.8,93,30.29,10.0,NNE,5.8,-,N/A,,Clear,30,2013-03-27 08:33:00
3:53 AM,15.8,14.0,93,30.28,10.0,ENE,3.5,-,N/A,,Clear,60,2013-03-27 08:53:00
4:13 AM,15.8,14.0,93,30.28,10.0,East,4.6,-,N/A,,Clear,80,2013-03-27 09:13:00
4:33 AM,15.8,14.0,93,30.28,10.0,East,4.6,-,N/A,,Clear,80,2013-03-27 09:33:00
4:53 AM,15.8,12.2,86,30.27,10.0,East,5.8,-,N/A,,Clear,80,2013-03-27 09:53:00
5:13 AM,14.0,12.2,93,30.27,10.0,East,6.9,-,N/A,,Clear,80,2013-03-27 10:13:00
5:33 AM,12.2,10.4,92,30.27,10.0,ENE,6.9,-,N/A,,Clear,60,2013-03-27 10:33:00
5:53 AM,14.0,10.4,86,30.27,10.0,ENE,6.9,-,N/A,,Clear,60,2013-03-27 10:53:00
6:13 AM,12.2,10.4,92,30.27,10.0,ENE,6.9,-,N/A,,Clear,70,2013-03-27 11:13:00
6:33 AM,12.2,10.4,92,30.28,10.0,East,6.9,-,N/A,,Clear,80,2013-03-27 11:33:00
6:53 AM,12.2,10.4,92,30.28,10.0,East,5.8,-,N/A,,Clear,90,2013-03-27 11:53:00
7:13 AM,14.0,10.4,86,30.28,10.0,East,4.6,-,N/A,,Clear,90,2013-03-27 12:13:00
7:33 AM,14.0,10.4,86,30.29,10.0,East,5.8,-,N/A,,Clear,90,2013-03-27 12:33:00
7:53 AM,12.2,10.4,92,30.30,10.0,East,4.6,-,N/A,,Clear,90,2013-03-27 12:53:00
8:13 AM,14.0,10.4,86,30.30,10.0,East,5.8,-,N/A,,Clear,90,2013-03-27 13:13:00
8:33 AM,15.8,12.2,86,30.30,10.0,East,5.8,-,N/A,,Clear,100,2013-03-27 13:33:00
8:53 AM,17.6,12.2,79,30.30,10.0,East,4.6,-,N/A,,Clear,100,2013-03-27 13:53:00
9:13 AM,17.6,14.0,86,30.30,10.0,East,4.6,-,N/A,,Clear,100,2013-03-27 14:13:00
9:34 AM,19.4,15.8,86,30.30,10.0,East,4.6,-,N/A,,Clear,100,2013-03-27 14:34:00
9:53 AM,21.2,15.8,80,30.30,10.0,East,4.6,-,N/A,,Clear,100,2013-03-27 14:53:00
10:13 AM,24.8,15.8,69,30.30,10.0,East,5.8,-,N/A,,Clear,100,2013-03-27 15:13:00
10:34 AM,26.6,17.6,69,30.31,10.0,ESE,4.6,-,N/A,,Clear,110,2013-03-27 15:34:00
10:53 AM,28.4,17.6,64,30.31,10.0,ESE,4.6,-,N/A,,Clear,110,2013-03-27 15:53:00
11:13 AM,30.2,17.6,60,30.31,10.0,ESE,6.9,-,N/A,,Clear,110,2013-03-27 16:13:00
11:34 AM,30.2,17.6,60,30.31,10.0,ESE,6.9,-,N/A,,Clear,120,2013-03-27 16:34:00
11:53 AM,32.0,17.6,55,30.31,10.0,ESE,6.9,-,N/A,,Clear,120,2013-03-27 16:53:00
12:13 PM,33.8,19.4,56,30.31,10.0,ESE,5.8,-,N/A,,Scattered Clouds,110,2013-03-27 17:13:00
12:34 PM,33.8,19.4,56,30.31,10.0,ESE,5.8,-,N/A,,Mostly Cloudy,120,2013-03-27 17:34:00
12:53 PM,35.6,19.4,52,30.31,10.0,ESE,6.9,-,N/A,,Overcast,110,2013-03-27 17:53:00
1:13 PM,35.6,21.2,56,30.31,10.0,ESE,6.9,-,N/A,,Overcast,110,2013-03-27 18:13:00
1:34 PM,35.6,23.0,60,30.31,10.0,SSE,8.1,-,N/A,,Overcast,150,2013-03-27 18:34:00
1:53 PM,35.6,21.2,56,30.31,10.0,SSE,9.2,-,N/A,,Overcast,150,2013-03-27 18:53:00
2:13 PM,35.6,21.2,56,30.30,10.0,SE,9.2,-,N/A,,Overcast,140,2013-03-27 19:13:00
2:34 PM,35.6,21.2,56,30.30,10.0,SSE,9.2,-,N/A,,Overcast,160,2013-03-27 19:34:00
2:53 PM,35.6,21.2,56,30.30,10.0,SSE,10.4,-,N/A,,Mostly Cloudy,150,2013-03-27 19:53:00
3:13 PM,35.6,21.2,56,30.30,10.0,ESE,6.9,-,N/A,,Scattered Clouds,120,2013-03-27 20:13:00
3:34 PM,35.6,21.2,56,30.29,10.0,SE,8.1,-,N/A,,Scattered Clouds,130,2013-03-27 20:34:00
3:53 PM,35.6,21.2,56,30.29,10.0,SE,8.1,-,N/A,,Scattered Clouds,130,2013-03-27 20:53:00
4:13 PM,35.6,21.2,56,30.29,10.0,SE,9.2,-,N/A,,Mostly Cloudy,140,2013-03-27 21:13:00
4:34 PM,35.6,21.2,56,30.29,10.0,SE,6.9,-,N/A,,Scattered Clouds,130,2013-03-27 21:34:00
4:53 PM,35.6,21.2,56,30.29,10.0,ESE,8.1,-,N/A,,Scattered Clouds,120,2013-03-27 21:53:00
5:13 PM,35.6,21.2,56,30.28,10.0,ESE,6.9,-,N/A,,Scattered Clouds,120,2013-03-27 22:13:00
5:33 PM,35.6,21.2,56,30.28,10.0,SE,8.1,-,N/A,,Scattered Clouds,130,2013-03-27 22:33:00
5:53 PM,33.8,21.2,60,30.28,10.0,SE,6.9,-,N/A,,Clear,130,2013-03-27 22:53:00
6:13 PM,33.8,24.8,70,30.28,10.0,East,6.9,-,N/A,,Clear,100,2013-03-27 23:13:00
6:33 PM,33.8,24.8,70,30.28,10.0,ESE,8.1,-,N/A,,Clear,110,2013-03-27 23:33:00
6:53 PM,32.0,23.0,69,30.28,10.0,ESE,6.9,-,N/A,,Clear,110,2013-03-27 23:53:00
7:14 PM,30.2,23.0,75,30.28,10.0,East,6.9,-,N/A,,Clear,100,2013-03-28 00:14:00
7:33 PM,28.4,21.2,74,30.28,10.0,East,5.8,-,N/A,,Clear,100,2013-03-28 00:33:00
7:53 PM,26.6,21.2,80,30.28,10.0,East,6.9,-,N/A,,Clear,100,2013-03-28 00:53:00
8:14 PM,26.6,19.4,74,30.29,10.0,East,5.8,-,N/A,,Clear,100,2013-03-28 01:14:00
8:33 PM,26.6,19.4,74,30.29,10.0,ESE,5.8,-,N/A,,Clear,120,2013-03-28 01:33:00
8:53 PM,26.6,19.4,74,30.29,10.0,ESE,5.8,-,N/A,,Clear,110,2013-03-28 01:53:00
9:14 PM,26.6,19.4,74,30.29,10.0,ESE,4.6,-,N/A,,Clear,110,2013-03-28 02:14:00
9:33 PM,26.6,17.6,69,30.30,10.0,East,4.6,-,N/A,,Clear,100,2013-03-28 02:33:00
9:53 PM,26.6,17.6,69,30.30,10.0,ESE,4.6,-,N/A,,Clear,110,2013-03-28 02:53:00
10:14 PM,26.6,17.6,69,30.30,10.0,ESE,4.6,-,N/A,,Clear,110,2013-03-28 03:14:00
10:33 PM,26.6,17.6,69,30.30,10.0,ESE,5.8,-,N/A,,Clear,120,2013-03-28 03:33:00
10:53 PM,24.8,17.6,74,30.30,10.0,ESE,4.6,-,N/A,,Clear,110,2013-03-28 03:53:00
11:14 PM,24.8,17.6,74,30.30,10.0,ESE,4.6,-,N/A,,Clear,120,2013-03-28 04:14:00
11:33 PM,24.8,17.6,74,30.30,10.0,ESE,4.6,-,N/A,,Clear,110,2013-03-28 04:33:00
11:53 PM,24.8,17.6,74,30.30,10.0,ESE,5.8,-,N/A,,Clear,110,2013-03-28 04:53:00